Hourly Data Report for January 30, 2020

TORONTO CITY
ONTARIO
Current Station Operator: ECCC - MSC

43°40'00.000" N
79°24'00.000" W
112.50 m
6158355
71508
XTO

Download Data

Hourly Data (January 2020)
Hourly Data Report for January 30, 2020
TIME
LST
Temp Definition
°C
Dew Point Definition
°C
Rel Hum Definition
%
Precip. Amount Definition
mm

Wind Dir Definition
10's deg

Wind Spd Definition
km/h
Visibility Definition
km
Stn Press Definition
kPa
Hmdx Definition


Wind Chill Definition


Weather Definition


00:00 -4.7 -11.7 58 0.0       101.17     LegendNANA
01:00 -4.9 -12.1 57 0.0       101.14     LegendNANA
02:00 -5.1 -11.3 62 0.0       101.12     LegendNANA
03:00 -5.0 -10.3 67 0.0       101.10     LegendNANA
04:00 -5.1 -10.5 66 0.0       101.09     LegendNANA
05:00 -5.0 -9.1 73 0.0       101.06     LegendNANA
06:00 -5.0 -8.7 75 0.0       101.09     LegendNANA
07:00 -4.9 -8.5 76 0.0       101.10     LegendNANA
08:00 -4.3 -7.7 77 0.0       101.17     LegendNANA
09:00 -3.7 -6.6 81 0.0       101.18     LegendNANA
10:00 -3.8 -6.7 80 0.0       101.17     LegendNANA
11:00 -3.1 -5.6 83 0.0       101.19     LegendNANA
12:00 -2.4 -5.2 81 0.0       101.18     LegendNANA
13:00 -2.0 -5.9 75 0.0       101.12     LegendNANA
14:00 -2.0 -6.7 70 0.0       101.06     LegendNANA
15:00 -2.2 -7.1 69 0.0       101.02     LegendNANA
16:00 -1.6 -6.1 71 0.0       101.02     LegendNANA
17:00 -1.7 -6.2 71 0.0       100.99     LegendNANA
18:00 -1.6 -6.0 72 0.0       101.04     LegendNANA
19:00 -1.4 -5.2 75 0.0       101.06     LegendNANA
20:00 -1.7 -6.2 71 0.0       101.10     LegendNANA
21:00 -2.0 -6.6 71 0.0       101.11     LegendNANA
22:00 -2.1 -7.0 69 0.0       101.09     LegendNANA
23:00 -2.5 -7.2 70 0.0       101.06     LegendNANA

Notes on Data Quality.

Legend

  • E = Estimated
  • M = Missing
  • NA = Not Available*
  • [empty] = Indicates an unobserved value
Date modified: